# Land Stadt Wetter Temperatur Luftdruck Luftfeuchtigkeit Sichtweite Windgeschwindigkeit Windrichtung Ortszeit
1 de Oberstdorf Clouds 19 943 47 0 8 180 02.08.2018 14:21
2 no Oslo Clouds 19 993 48 0 3 225 02.08.2018 14:23
3 ae Dubai Clear 39 994 33 9000 13 40 02.08.2018 14:21
4 qa Doha Clouds 36 994 53 10000 17 360 02.08.2018 14:23
5 iq Bagdad Clear 39 996 20 10000 2 0 02.08.2018 14:22
6 it Palermo Clear 28 999 59 0 10 71 02.08.2018 14:22
7 ca Montreal Clouds 27 1000 78 14484 18 280 02.08.2018 14:22
8 cn Peking Clouds 25 1001 89 0 6 158 02.08.2018 14:23
9 sa Riad Clouds 39 1001 12 7000 18 50 02.08.2018 14:21
10 cn Shanghai Clouds 31 1002 70 10000 14 230 02.08.2018 14:21
11 ar Ushuaia Clouds 2 1002 90 10000 35 230 02.08.2018 14:22
12 gl Nuuk Clouds 11 1004 66 10000 9 210 02.08.2018 14:22
13 ru Amderma Clouds 5 1004 94 0 18 49 02.08.2018 14:23
14 kr Seoul Rain 21 1005 88 6000 23 98 02.08.2018 14:21
15 ru Werchojansk Clouds 18 1005 84 0 3 143 02.08.2018 14:22
16 ph Manila Clouds 28 1005 85 0 6 324 02.08.2018 14:21
17 vn Hanoi Rain 30 1005 62 10000 9 180 02.08.2018 14:21
18 in Mumbai Haze 28 1005 94 3000 5 100 02.08.2018 14:22
19 in Nagpur Thunderstorm 25 1006 100 2000 4 230 02.08.2018 14:21
20 us Fairbanks Clouds 14 1006 62 16093 4 156 02.08.2018 14:23
21 ru Jakutsk Clouds 21 1006 88 10000 7 330 02.08.2018 14:22
22 eg Kairo Clear 30 1006 51 10000 18 320 02.08.2018 14:22
23 mn Uliastai Rain 14 1006 61 0 6 96 02.08.2018 14:23
24 th Bangkok Rain 27 1007 83 9000 13 100 02.08.2018 14:21
25 us New York Clouds 31 1007 48 16093 17 260 02.08.2018 14:22
26 sb Honiara Clouds 24 1007 100 10000 4 160 02.08.2018 14:22
27 us Nome Clear 15 1007 67 16093 9 300 02.08.2018 14:23
28 jp Nagasaki Rain 23 1008 88 0 19 150 02.08.2018 14:21
29 in Jagatsukh Clouds 18 1008 45 0 5 33 02.08.2018 14:22
30 is Reykjavik Rain 11 1008 87 10000 5 0 02.08.2018 14:22
31 cn Lhasa Rain 15 1008 61 0 2 182 02.08.2018 14:22
32 tr Ankara Clouds 27 1009 39 10000 8 0 02.08.2018 14:23
33 mv Male Clouds 29 1009 83 10000 3 181 02.08.2018 14:23
34 tr Alanya Clear 21 1009 59 7000 22 300 02.08.2018 14:22
35 gr Athen Clear 30 1009 31 10000 15 360 02.08.2018 14:22
36 cd Kisangani Clouds 26 1009 70 0 3 328 02.08.2018 14:23
37 jp Tokio Clouds 20 1009 94 10000 24 70 02.08.2018 14:22
38 za Kapstadt Clear 15 1009 47 10000 33 340 02.08.2018 14:22
39 id Jakarta Haze 27 1010 83 5000 8 0 02.08.2018 14:22
40 ru Surgut Clouds 14 1010 100 10000 11 233 02.08.2018 14:23
41 pg Port Moresby Rain 24 1010 92 0 10 127 02.08.2018 14:21
42 tr Istanbul Clear 25 1011 57 10000 18 20 02.08.2018 14:23
43 us Death Valley Clear 44 1011 9 0 6 157 02.08.2018 14:22
44 uy Montevideo Clouds 10 1011 53 10000 18 290 02.08.2018 14:22
45 es Sevilla Clear 36 1011 19 10000 13 210 02.08.2018 14:22
46 ru Anadyr Fog 10 1011 81 10000 4 10 02.08.2018 14:23
47 mn Ulaanbaatar Clouds 13 1011 87 10000 7 140 02.08.2018 14:23
48 br Rio de Janeiro Clouds 31 1012 40 10000 22 320 02.08.2018 14:22
49 us Las Vegas Clouds 42 1012 12 16093 15 170 02.08.2018 14:21
50 us Chicago Clouds 24 1012 60 16093 22 20 02.08.2018 14:23
51 bg Warna Clear 26 1012 57 10000 11 130 02.08.2018 14:21
52 us Los Angeles Clear 30 1012 45 16093 6 224 02.08.2018 14:22
53 et Addis Abeba Rain 16 1012 76 0 7 230 02.08.2018 14:23
54 af Kabul Thunderstorm 23 1012 43 10000 9 60 02.08.2018 14:21
55 br Manaus Clouds 32 1012 62 10000 11 70 02.08.2018 14:21
56 au Darwin Clouds 23 1013 69 10000 11 140 02.08.2018 14:22
57 fi Rovaniemi Rain 16 1013 55 10000 9 90 02.08.2018 14:21
58 ma Marrakesch Clouds 39 1013 24 10000 15 340 02.08.2018 14:23
59 ar Buenos Aires Clouds 12 1013 37 10000 11 260 02.08.2018 14:22
60 bo Potisi Clear 13 1014 22 0 2 346 02.08.2018 14:22
61 es Tarifa Haze 27 1014 78 7000 17 100 02.08.2018 14:21
62 no Hammerfest Rain 14 1014 58 10000 21 80 02.08.2018 14:22
63 es Las Palmas de Gran Canaria Clouds 25 1014 69 10000 44 20 02.08.2018 14:21
64 ma Casablanca Clouds 24 1014 78 6000 22 340 02.08.2018 14:23
65 au Perth Clouds 14 1014 66 10000 9 40 02.08.2018 14:21
66 ua Kiew Clouds 19 1014 77 10000 22 340 02.08.2018 14:21
67 pt Lissabon Clear 29 1015 43 10000 17 330 02.08.2018 14:22
68 it Rom Clear 29 1015 51 10000 11 230 02.08.2018 14:23
69 us Miami Rain 30 1015 62 16093 26 210 02.08.2018 14:23
70 ru Moskau Clouds 21 1015 87 10000 14 360 02.08.2018 14:22
71 ec San Cristobal Clouds 20 1015 82 0 12 151 02.08.2018 14:22
72 ck Avarua Drizzle 21 1015 88 10000 9 140 02.08.2018 14:22
73 fi Helsinki Clouds 17 1015 63 10000 18 210 02.08.2018 14:21
74 au Sydney Rain 9 1016 93 10000 11 270 02.08.2018 14:22
75 do Santo Domingo Clouds 33 1016 55 10000 18 40 02.08.2018 14:21
76 se Stockholm Clouds 16 1016 63 10000 5 360 02.08.2018 14:23
77 mx Veracruz Clear 32 1016 62 11265 8 170 02.08.2018 14:21
78 fj Suva Rain 23 1016 85 0 21 106 02.08.2018 14:21
79 us Tucson Clouds 37 1016 25 12874 9 50 02.08.2018 14:21
80 fr Nizza Clouds 27 1017 51 10000 8 210 02.08.2018 14:22
81 es Madrid Clouds 29 1017 42 10000 17 100 02.08.2018 14:23
82 bs Nassau Clouds 31 1017 70 10000 24 200 02.08.2018 14:22
83 bg Sofia Clouds 19 1018 68 10000 41 280 02.08.2018 14:21
84 us Honolulu Clouds 25 1018 61 16093 22 70 02.08.2018 14:22
85 it Mailand Clear 27 1019 42 10000 17 140 02.08.2018 14:21
86 fr Bordeaux Clouds 30 1019 23 10000 18 40 02.08.2018 14:21
87 es Palma de Mallorca Clouds 29 1019 51 10000 15 210 02.08.2018 14:22
88 ar Esquel Clouds 1 1019 87 0 10 264 02.08.2018 14:22
89 nz Wellington Rain 9 1020 93 6000 39 180 02.08.2018 14:23
90 es Barcelona Clouds 25 1020 57 10000 15 200 02.08.2018 14:22
91 ke Nairobi Clouds 20 1021 64 10000 8 70 02.08.2018 14:22
92 us Denver Clouds 33 1021 17 16093 13 350 02.08.2018 14:21
93 ch Bern Clear 22 1022 40 10000 9 30 02.08.2018 14:23
94 cl Santiago Haze 14 1022 58 4000 5 250 02.08.2018 14:23
95 ch Andermatt Clouds 14 1022 49 0 18 30 02.08.2018 14:23
96 de Freiburg Clear 25 1022 27 10000 18 10 02.08.2018 14:22
97 ad Andorra la Vella Clouds 20 1022 50 10000 5 0 02.08.2018 14:22
98 mg Antananarivo Clouds 14 1023 87 10000 9 60 02.08.2018 14:21
99 gb Glasgow Clouds 17 1023 59 10000 26 220 02.08.2018 14:21
100 at Innsbruck Clouds 18 1023 46 10000 22 80 02.08.2018 14:23
101 fr Paris Clouds 25 1024 31 10000 11 20 02.08.2018 14:22
102 de Stuttgart Clouds 23 1024 43 10000 11 60 02.08.2018 14:22
103 at Wien Clouds 21 1024 40 10000 11 350 02.08.2018 14:22
104 de Frankfurt Clouds 23 1024 28 10000 15 30 02.08.2018 14:22
105 ie Dublin Clouds 19 1024 68 10000 15 230 02.08.2018 14:21
106 au Alice Springs Clear 2 1025 69 10000 4 190 02.08.2018 14:21
107 de Nürnberg Clouds 21 1025 37 10000 9 10 02.08.2018 14:21
108 de Trier Clear 22 1025 33 10000 11 80 02.08.2018 14:21
109 de München Clear 20 1025 50 0 10 64 02.08.2018 14:21
110 de Magdeburg Clouds 20 1025 36 0 19 295 02.08.2018 14:22
111 de Dresden Clear 20 1026 34 10000 15 330 02.08.2018 14:22
112 gb Manchester Clouds 21 1026 49 10000 9 210 02.08.2018 14:21
113 de Berlin Clouds 20 1026 42 10000 13 330 02.08.2018 14:21
114 de Flensburg Clouds 17 1026 59 10000 31 310 02.08.2018 14:21
115 de Köln Clouds 23 1026 43 10000 5 40 02.08.2018 14:21
116 gb London Clouds 24 1026 29 10000 5 0 02.08.2018 14:22
117 de Hannover Clouds 20 1026 42 10000 11 310 02.08.2018 14:21
118 de Torfhaus Clouds 19 1026 62 0 7 358 02.08.2018 14:22
119 de Emden Clear 17 1027 68 0 5 328 02.08.2018 14:21
120 de Helgoland Clouds 17 1027 51 10000 17 320 02.08.2018 14:22
121 de Braunschweig Clear 21 1027 32 10000 13 330 02.08.2018 14:21
122 de Bremen Clouds 19 1027 59 10000 13 30 02.08.2018 14:22
123 de Hamburg Clouds 18 1027 45 10000 15 300 02.08.2018 14:21
124 de Kassel Clear 20 1027 40 10000 9 340 02.08.2018 14:21
125 de Hiddensee Clouds 16 1029 69 0 5 292 02.08.2018 14:21
126 mx Mexiko Stadt Clouds 21 1030 46 16093 4 63 02.08.2018 14:21
127 pe Cusco Clouds 21 1030 19 10000 5 0 02.08.2018 14:23
128 bo La Paz Clear 15 1038 1 10000 9 210 02.08.2018 14:22